Tracking 19854 objects as of 23-Sep-2019
HD Live streaming from Space Station
objects crossing your sky now

IRIDIUM 69

Track IRIDIUM 69 now!
10-day predictions
IRIDIUM 69 is classified as:


NORAD ID: 25319
Int'l Code: 1998-026A
Perigee: 766.6 km
Apogee: 772.6 km
Inclination: 86.4 °
Period: 100.1 minutes
Semi major axis: 7140 km
RCS: 4.3416 m2 (large)
Launch date: May 2, 1998
Source: United States (US)
Launch site: Taiyaun Space Center, China (TSC)
aabbcc
Your satellite tracking list
Your tracking list is empty




NASA's NSSDC Master Catalog

Two Line Element Set (TLE):
1 25319U 98026A   19265.53760010  .00000059  00000-0  12832-4 0  9994
2 25319  86.3953 257.6068 0004194  82.8030 277.3645 14.38809618121993
Source of the keplerian elements: AFSPC